Starlink 31818

operational
NORAD ID: 59741 Int'l Des: 2024-090 Owner: SPXS Country: US Constellation: starlink
LEOCIRCULAR

About Starlink 31818

Description loading...

Live Position

Loading 3D Globe...

Upcoming Passes

Altitude History

Altitude vs Time

uPlot chart will show altitude changes over time

Two-Line Element Set

1 59741U 24090M 25258.95111498 .00001322 00000-0 57526-4 0 9998
2 59741 43.0006 90.5365 0000941 266.1920 93.8824 15.27589144 76710
Epoch: Sep 15, 2025 • Age: 14 hours

Current Status

Altitude 482.2 km
Velocity 7.63 km/s
Sub-Earth Point 12.99°N, 89.8°W
Launch Date May 13, 2024
Age 1.3 years
Type internet

Technical Details

Classification Payload
Mass 730.00 kg
Dry Mass 700.00 kg
Total Mass 730.00 kg
Length 0.30 m
Diameter 4.10 m
Span 29.00 m
Shape Box + pan
Manufacturer SPXS
Bus Type Starlink V2M
Phase Status In Orbit
Owner/State SPXS/US

Large Constellations

Loading constellations...